(240940) = 2004 TU311 = 2006 GF21

Discovered at Mount Lemmon on 2006-04-02 by Mt. Lemmon Survey.

Orbit

Orbit type: Main Belt

Note: WebGL enabled browser required.

epoch2024-03-31.0
epoch JD2460400.5
perihelion date2022-06-13.61576
perihelion JD2459744.11576
argument of perihelion (°)280.43514
ascending node (°)196.84203
inclination (°)4.55173
eccentricity0.2323369
perihelion distance (AU)1.9911138
Tisserand w.r.t. Jupiter3.4
ΔV w.r.t. Earth (km/sec)9.0
semimajor axis (AU)2.5937340
mean anomaly (°)154.87233
mean daily motion (°/day)0.23594770
aphelion distance (AU)3.196
period (years)4.18
P-vector [x]-0.45739683
P-vector [y]0.84377937
P-vector [z]0.28075704
Q-vector [x]-0.88896539
Q-vector [y]-0.42569382
Q-vector [z]-0.16889437
absolute magnitude17.02
phase slope0.15
uncertainty0
referenceMPEC 2024-C115
observations used384
oppositions14
arc length (days)7740
first opposition used2002
last opposition used2023
residual rms (arc-secs)0.68
perturbers coarse indicatorM-v
perturbers precise indicator003Ek
first observation date used2002-04-09.0
last observation date used2023-06-18.0
computer nameMPCLINUX
JD of orbit computation2456700.302544
perihelion JD uncertainty (days)6.8058E-05
argument of perihelion uncertainty (°)6.2447E-05
ascending node uncertainty (°)5.7141E-05
inclination uncertainty (°)5.1522E-06
eccentricity uncertainty 5.7212E-08
perihelion distance uncertainty (AU)1.5850E-07
Minimum Orbit Intersection Distances (in AU)
for orbit epoch: 2460200.5, reference: E2024-CB5
Mercury1.67452
Venus1.2808
Earth1.01257
Mars0.40022
Jupiter1.93671
Saturn6.73925
Uranus16.1317
Neptune26.9755

Observations

383 total observations over interval: 2002 04 09.26536 – 2023 06 18.314888
These data are available for download (format description).

Date (UT) J2000 RA J2000 Dec Magn Location Ref
2002 04 09.26536 14 03 27.09 -11 10 46.2 20.4   644 – Palomar Mountain/NEAT MPS 169949
2002 04 09.33398 14 03 23.48 -11 10 18.6 20.1   644 – Palomar Mountain/NEAT MPS 169949
2002 04 09.40911 14 03 19.51 -11 09 48.3 20.8   644 – Palomar Mountain/NEAT MPS 169949
2004 10 11.16913 00 22 20.78 +03 19 56.7 20.4 V 691 – Steward Observatory, Kitt Peak-Spacewatch MPS 118691
2004 10 11.20167 00 22 19.11 +03 19 43.2 20.4 V 691 – Steward Observatory, Kitt Peak-Spacewatch MPS 118691
2004 10 11.22898 00 22 17.70 +03 19 31.0 20.7 V 691 – Steward Observatory, Kitt Peak-Spacewatch MPS 118691
2004 10 15.14976 00 19 08.26 +02 51 29.6 20.6 V 691 – Steward Observatory, Kitt Peak-Spacewatch MPS 118691
2004 10 15.17692 00 19 06.95 +02 51 18.3 20.4 V 691 – Steward Observatory, Kitt Peak-Spacewatch MPS 118691
2004 10 15.20360 00 19 05.64 +02 51 07.1 20.4 V 691 – Steward Observatory, Kitt Peak-Spacewatch MPS 118691
2004 11 05.205967 00 06 34.831 +00 49 30.91 20.97 V 645 – Apache Point-Sloan Digital Sky Survey MPS 390390
2004 11 05.209439 00 06 34.756 +00 49 30.09 21.66   645 – Apache Point-Sloan Digital Sky Survey MPS 390390
2006 03 04.39148 12 27 28.12 -05 52 15.9   691 – Steward Observatory, Kitt Peak-Spacewatch MPS 169949
2006 03 04.40881 12 27 27.42 -05 52 09.4   691 – Steward Observatory, Kitt Peak-Spacewatch MPS 169949
2006 03 04.42614 12 27 26.72 -05 52 03.3   691 – Steward Observatory, Kitt Peak-Spacewatch MPS 169949
2006 04 02.29206 12 05 01.10 -02 12 48.2 19.7 V G96 – Mt. Lemmon Survey MPS 168895
2006 04 02.29807 12 05 00.81 -02 12 45.5 19.6 V G96 – Mt. Lemmon Survey MPS 168895
2006 04 02.30391 12 05 00.52 -02 12 42.9 19.7 V G96 – Mt. Lemmon Survey MPS 168895
2006 04 02.30948 12 05 00.27 -02 12 40.2 19.6 V G96 – Mt. Lemmon Survey MPS 168895
2006 04 07.24762 12 01 28.74 -01 35 31.0 19.8 V G96 – Mt. Lemmon Survey MPS 168895
2006 04 07.25413 12 01 28.45 -01 35 28.1 20.0 V G96 – Mt. Lemmon Survey MPS 168895
2006 04 07.26083 12 01 28.16 -01 35 25.1 19.7 V G96 – Mt. Lemmon Survey MPS 168895
2006 04 07.26736 12 01 27.91 -01 35 22.1 19.8 V G96 – Mt. Lemmon Survey MPS 168895
2006 05 01.18297 11 51 54.23 +00 30 42.2 21.2   701 – Junk Bond Observatory, Sierra Vista MPS 170885
2006 05 01.22464 11 51 53.91 +00 30 48.8 21.1   701 – Junk Bond Observatory, Sierra Vista MPS 170885
2006 05 01.26667 11 51 53.61 +00 30 56.1 21.3   701 – Junk Bond Observatory, Sierra Vista MPS 170885
2006 05 21.14679 11 55 08.61 +00 51 01.7 20.8 V G96 – Mt. Lemmon Survey MPS 172086
2006 05 21.15454 11 55 08.76 +00 51 01.0 21.1 V G96 – Mt. Lemmon Survey MPS 172086
2006 05 21.16226 11 55 08.94 +00 51 00.7 21.1 V G96 – Mt. Lemmon Survey MPS 172086
2006 05 21.17001 11 55 09.12 +00 51 00.5 21.4 V G96 – Mt. Lemmon Survey MPS 172086
2008 09 07.32052 23 25 34.46 -00 09 05.8 20.7 V G96 – Mt. Lemmon Survey MPS 255900
2008 09 07.32589 23 25 34.17 -00 09 07.4 20.4 V G96 – Mt. Lemmon Survey MPS 255900
2008 09 07.33146 23 25 33.88 -00 09 09.5 20.6 V G96 – Mt. Lemmon Survey MPS 255900
2008 09 07.33685 23 25 33.63 -00 09 11.7 20.6 V G96 – Mt. Lemmon Survey MPS 255900
2008 09 22.21813 23 13 08.25 -01 48 58.3 20.9 V G96 – Mt. Lemmon Survey MPS 256755
2008 09 22.22694 23 13 07.78 -01 49 01.9 20.8 V G96 – Mt. Lemmon Survey MPS 256755
2008 09 22.23585 23 13 07.35 -01 49 05.8 20.8 V G96 – Mt. Lemmon Survey MPS 256755
2008 09 22.24472 23 13 06.92 -01 49 09.1 20.8 V G96 – Mt. Lemmon Survey MPS 256755
2008 10 21.19719 22 55 45.40 -04 33 21.7 21.5 V G96 – Mt. Lemmon Survey MPS 260632
2008 10 21.20223 22 55 45.30 -04 33 23.4 22.3 V G96 – Mt. Lemmon Survey MPS 260632
2008 10 21.20723 22 55 45.22 -04 33 24.5 21.5 V G96 – Mt. Lemmon Survey MPS 260632
2008 10 21.21229 22 55 45.12 -04 33 25.5 21.7 V G96 – Mt. Lemmon Survey MPS 260632
2010 02 09.35515 10 09 05.76 +04 15 29.6 19.2 V 703 – Catalina Sky Survey MPS 313299
2010 02 09.36192 10 09 05.36 +04 15 32.1 19.2 V 703 – Catalina Sky Survey MPS 313299
2010 02 09.36869 10 09 05.07 +04 15 34.0 19.4 V 703 – Catalina Sky Survey MPS 313299
2010 02 09.37545 10 09 04.75 +04 15 37.1 19.0 V 703 – Catalina Sky Survey MPS 313299
2010 02 12.28195 10 06 47.15 +04 33 23.9 19.1   704 – Lincoln Laboratory ETS, New Mexico MPS 313299
2010 02 12.29442 10 06 46.55 +04 33 28.9 19.3   704 – Lincoln Laboratory ETS, New Mexico MPS 313299
2010 02 12.30680 10 06 45.93 +04 33 32.6 19.3   704 – Lincoln Laboratory ETS, New Mexico MPS 313299
2010 02 12.31912 10 06 45.33 +04 33 38.1 19.5   704 – Lincoln Laboratory ETS, New Mexico MPS 313299
2010 02 12.33143 10 06 44.65 +04 33 42.4 19.8   704 – Lincoln Laboratory ETS, New Mexico MPS 313299
2010 02 15.40723 10 04 14.48 +04 53 50.0 18.9 V G96 – Mt. Lemmon Survey MPS 313299
2010 02 15.41385 10 04 14.16 +04 53 52.5 18.8 V G96 – Mt. Lemmon Survey MPS 313299
2010 02 15.42043 10 04 13.80 +04 53 55.0 19.0 V G96 – Mt. Lemmon Survey MPS 313299
2010 02 15.42699 10 04 13.47 +04 53 57.8 19.0 V G96 – Mt. Lemmon Survey MPS 313299
2010 02 16.24479 10 03 33.73 +04 59 30.8 18.5 V 703 – Catalina Sky Survey MPS 313299
2010 02 16.25168 10 03 33.44 +04 59 33.5 19.2 V 703 – Catalina Sky Survey MPS 313299
2010 02 16.25858 10 03 33.04 +04 59 37.0 18.8 V 703 – Catalina Sky Survey MPS 313299
2010 02 16.26549 10 03 32.61 +04 59 40.2 18.7 V 703 – Catalina Sky Survey MPS 313299
2010 02 17.27486 10 02 43.00 +05 06 35.8 19.5   704 – Lincoln Laboratory ETS, New Mexico MPS 313299
2010 02 17.28713 10 02 42.41 +05 06 40.6 20.0   704 – Lincoln Laboratory ETS, New Mexico MPS 313299
2010 02 17.29979 10 02 41.73 +05 06 46.4 19.7   704 – Lincoln Laboratory ETS, New Mexico MPS 313299
2010 02 17.31207 10 02 41.05 +05 06 50.9 19.7   704 – Lincoln Laboratory ETS, New Mexico MPS 313299
2010 02 17.32420 10 02 40.47 +05 06 55.7 19.6   704 – Lincoln Laboratory ETS, New Mexico MPS 313299
2010 04 03.265118 09 44 08.038 +09 32 44.40 20.07 z F51 – Pan-STARRS 1, Haleakala MPS 338910
2010 04 03.275866 09 44 08.164 +09 32 46.62 20.27 z F51 – Pan-STARRS 1, Haleakala MPS 338910
2010 05 17.790081 10 17 55.308 +08 50 41.39   C51 – WISE MPS 903680
2010 05 17.922385 10 18 04.598 +08 50 08.09   C51 – WISE MPS 903680
2010 05 18.054690 10 18 14.00 +08 49 34.0   C51 – WISE MPS 328591
2010 05 18.186993 10 18 23.26 +08 48 59.9   C51 – WISE MPS 328591
2010 05 18.319297 10 18 32.60 +08 48 25.8   C51 – WISE MPS 328591
2010 05 18.385513 10 18 37.31 +08 48 08.3   C51 – WISE MPS 328591
2010 05 18.451601 10 18 41.97 +08 47 51.6   C51 – WISE MPS 328591
2010 05 18.517817 10 18 46.69 +08 47 34.6   C51 – WISE MPS 328591
2010 05 18.583905 10 18 51.28 +08 47 17.0   C51 – WISE MPS 328591
2010 05 18.650122 10 18 56.00 +08 46 59.7   C51 – WISE MPS 328591
2010 05 18.716209 10 19 00.75 +08 46 42.2   C51 – WISE MPS 328591
2010 05 18.782425 10 19 05.41 +08 46 25.6   C51 – WISE MPS 328591
2010 05 18.914729 10 19 14.86 +08 45 51.1   C51 – WISE MPS 328591
2010 05 19.047034 10 19 24.23 +08 45 15.3   C51 – WISE MPS 328591
2010 05 19.179337 10 19 33.64 +08 44 40.8   C51 – WISE MPS 328591
2010 05 19.311641 10 19 43.08 +08 44 06.0   C51 – WISE MPS 328591
2012 08 13.41815 22 35 52.851 -03 46 49.37 21.3 w F51 – Pan-STARRS 1, Haleakala MPS 429937
2012 08 13.43265 22 35 52.183 -03 46 53.25 21.1 w F51 – Pan-STARRS 1, Haleakala MPS 429937
2012 08 13.44718 22 35 51.531 -03 46 57.58 21.2 w F51 – Pan-STARRS 1, Haleakala MPS 429937
2012 08 13.46192 22 35 50.829 -03 47 01.55 21.1 w F51 – Pan-STARRS 1, Haleakala MPS 429937
2013 12 04.73396 07 44 29.88 +13 33 07.3 20.3 R D29 – Purple Mountain Observatory, XuYi Station MPS 490834
2013 12 04.74987 07 44 29.72 +13 33 04.0 19.8 R D29 – Purple Mountain Observatory, XuYi Station MPS 490834
2013 12 04.76578 07 44 29.70 +13 33 00.3 19.9 R D29 – Purple Mountain Observatory, XuYi Station MPS 490834
2013 12 15.44138 07 42 04.700 +13 03 25.76 19.1 z F51 – Pan-STARRS 1, Haleakala MPS 493208
2013 12 15.45310 07 42 04.382 +13 03 24.41 19.1 z F51 – Pan-STARRS 1, Haleakala MPS 493208
2013 12 15.57338 07 42 01.048 +13 03 09.94 19.2 z F51 – Pan-STARRS 1, Haleakala MPS 493208
2013 12 15.58528 07 42 00.721 +13 03 08.52 19.3 z F51 – Pan-STARRS 1, Haleakala MPS 493208
2013 12 26.64486 07 35 37.16 +12 50 31.0 18.8 R D29 – Purple Mountain Observatory, XuYi Station MPS 493208
